• In Hungary
  • List of Countries
  • For 7 days
  • Water Temperature
  • Satellite Maps
  • Weather Map
  • News
  • Weather Widgets
  • user-avatar
    Login

    Hourly Weather Sun Valley

    Today, 17 January, Wednesday

    Time Temperature Precipitation Wind Pressure Humidity
    00:00 +7°C° 0 mm 1 mps 637 mmHg 72%
    01:00 +6°C° 0 mm 1 mps 637 mmHg 74%
    02:00 +6°C° 0 mm 1 mps 637 mmHg 75%
    03:00 +6°C° 0 mm 1 mps 637 mmHg 77%
    04:00 +5°C° 0 mm 1 mps 637 mmHg 78%
    05:00 +5°C° 0 mm 1 mps 637 mmHg 78%
    06:00 +5°C° 0 mm 1 mps 637 mmHg 78%
    07:00 +6°C° 0 mm 1 mps 638 mmHg 78%
    08:00 +7°C° 0 mm 1 mps 638 mmHg 73%
    09:00 +9°C° 0 mm 1 mps 639 mmHg 67%
    10:00 +9°C° 0 mm 2 mps 640 mmHg 62%
    11:00 +12°C° 0 mm 2 mps 640 mmHg 58%
    12:00 +13°C° 0 mm 2 mps 640 mmHg 55%
    13:00 +14°C° 0 mm 2 mps 639 mmHg 52%
    14:00 +14°C° 0 mm 2 mps 639 mmHg 54%
    15:00 +14°C° 0 mm 2 mps 639 mmHg 55%
    16:00 +14°C° 0 mm 2 mps 639 mmHg 57%
    17:00 +13°C° 0 mm 2 mps 638 mmHg 63%
    18:00 +10°C° 0 mm 2 mps 638 mmHg 68%
    19:00 +9°C° 0 mm 2 mps 637 mmHg 73%
    20:00 +9°C° 0 mm 2 mps 637 mmHg 75%
    21:00 +8°C° 0 mm 2 mps 637 mmHg 77%
    22:00 +8°C° 0 mm 2 mps 637 mmHg 79%
    23:00 +7°C° 0 mm 2 mps 637 mmHg 79%

    Tomorrow, 18 January, Thursday

    Time Temperature Precipitation Wind Pressure Humidity
    00:00 +7°C° 0 mm 2 mps 636 mmHg 79%
    01:00 +7°C° 0 mm 3 mps 636 mmHg 79%
    02:00 +5°C° 0 mm 3 mps 636 mmHg 80%
    03:00 +5°C° 0 mm 3 mps 635 mmHg 80%
    04:00 +5°C° 0 mm 3 mps 635 mmHg 81%
    05:00 +5°C° 0 mm 3 mps 634 mmHg 81%
    06:00 +4°C° 0 mm 3 mps 634 mmHg 82%
    07:00 +4°C° 0 mm 3 mps 634 mmHg 82%
    08:00 +6°C° 0 mm 4 mps 634 mmHg 75%
    09:00 +7°C° 0 mm 5 mps 634 mmHg 68%
    10:00 +9°C° 0 mm 7 mps 634 mmHg 61%
    11:00 +10°C° 0.1 mm 9 mps 634 mmHg 59%
    12:00 +9°C° 0.1 mm 10 mps 633 mmHg 56%
    13:00 +10°C° 0.1 mm 12 mps 632 mmHg 54%
    14:00 +9°C° 0.6 mm 11 mps 632 mmHg 58%
    15:00 +8°C° 0.6 mm 10 mps 631 mmHg 63%
    16:00 +7°C° 0.6 mm 9 mps 631 mmHg 67%
    17:00 +6°C° 1.3 mm 8 mps 631 mmHg 70%
    18:00 +5°C° 1.3 mm 6 mps 630 mmHg 73%
    19:00 +5°C° 1.3 mm 5 mps 630 mmHg 75%
    20:00 +5°C° 0.5 mm 5 mps 630 mmHg 76%
    21:00 +3°C° 0.5 mm 5 mps 630 mmHg 76%
    22:00 +3°C° 0.5 mm 6 mps 630 mmHg 76%
    23:00 +3°C° 0.4 mm 6 mps 629 mmHg 76%

    Day after tomorrow, 19 January, Friday

    Time Temperature Precipitation Wind Pressure Humidity
    00:00 +2°C° 0.4 mm 6 mps 629 mmHg 76%
    01:00 +2°C° 0.4 mm 6 mps 629 mmHg 77%
    02:00 +1°C° 0.6 mm 6 mps 629 mmHg 78%
    03:00 -1°C° 0.6 mm 6 mps 629 mmHg 79%
    04:00 -2°C° 0.6 mm 6 mps 629 mmHg 80%
    05:00 -1°C° 0.3 mm 5 mps 629 mmHg 79%
    06:00 -2°C° 0.3 mm 4 mps 629 mmHg 79%
    07:00 -2°C° 0.3 mm 4 mps 630 mmHg 79%
    08:00 -2°C° 0.2 mm 4 mps 630 mmHg 76%
    09:00 -2°C° 0.2 mm 4 mps 631 mmHg 74%
    10:00 -1°C° 0.2 mm 3 mps 631 mmHg 71%
    11:00 -1°C° 0.2 mm 4 mps 631 mmHg 68%
    12:00 -1°C° 0.2 mm 4 mps 631 mmHg 66%
    13:00 -1°C° 0.2 mm 4 mps 631 mmHg 63%
    14:00 -1°C° 0.1 mm 4 mps 631 mmHg 63%
    15:00 -1°C° 0.1 mm 4 mps 631 mmHg 63%
    16:00 -1°C° 0.1 mm 4 mps 631 mmHg 63%
    17:00 -2°C° 0 mm 4 mps 631 mmHg 68%
    18:00 -2°C° 0 mm 3 mps 631 mmHg 72%
    19:00 -3°C° 0 mm 2 mps 632 mmHg 76%
    20:00 -4°C° 0 mm 2 mps 632 mmHg 78%
    21:00 -4°C° 0 mm 2 mps 632 mmHg 79%
    22:00 -5°C° 0 mm 2 mps 632 mmHg 80%
    23:00 -5°C° 0 mm 2 mps 632 mmHg 79%

    20 January, Saturday

    Time Temperature Precipitation Wind Pressure Humidity
    00:00 -5°C° 0 mm 2 mps 632 mmHg 79%
    01:00 -6°C° 0 mm 2 mps 632 mmHg 78%
    02:00 -6°C° 0 mm 2 mps 633 mmHg 78%
    03:00 -6°C° 0 mm 2 mps 633 mmHg 77%
    04:00 -6°C° 0 mm 2 mps 633 mmHg 77%
    05:00 -6°C° 0 mm 2 mps 633 mmHg 77%
    06:00 -6°C° 0 mm 2 mps 633 mmHg 77%
    07:00 -6°C° 0 mm 2 mps 633 mmHg 77%
    08:00 -4°C° 0 mm 2 mps 634 mmHg 72%
    09:00 -3°C° 0 mm 2 mps 634 mmHg 67%
    10:00 -1°C° 0 mm 2 mps 635 mmHg 62%
    11:00 0°C° 0 mm 3 mps 635 mmHg 61%
    12:00 0°C° 0 mm 3 mps 635 mmHg 60%
    13:00 +1°C° 0 mm 3 mps 635 mmHg 59%
    14:00 +1°C° 0 mm 3 mps 635 mmHg 61%
    15:00 0°C° 0 mm 4 mps 635 mmHg 63%
    16:00 0°C° 0 mm 4 mps 635 mmHg 65%
    17:00 0°C° 0 mm 3 mps 635 mmHg 69%
    18:00 -1°C° 0 mm 3 mps 635 mmHg 73%
    19:00 -2°C° 0 mm 2 mps 635 mmHg 78%
    20:00 -2°C° 0 mm 3 mps 635 mmHg 77%
    21:00 -4°C° 0 mm 3 mps 636 mmHg 77%
    22:00 -4°C° 0 mm 3 mps 636 mmHg 76%
    23:00 -2°C° 0 mm 3 mps 636 mmHg 76%

    21 January, Sunday

    Time Temperature Precipitation Wind Pressure Humidity
    00:00 -3°C° 0 mm 4 mps 635 mmHg 76%
    01:00 -3°C° 0 mm 4 mps 635 mmHg 76%
    02:00 -3°C° 0 mm 4 mps 635 mmHg 76%
    03:00 -4°C° 0 mm 5 mps 634 mmHg 76%
    04:00 -4°C° 0 mm 5 mps 634 mmHg 76%
    05:00 -3°C° 0 mm 6 mps 634 mmHg 76%
    06:00 -3°C° 0 mm 6 mps 634 mmHg 75%
    07:00 -3°C° 0 mm 6 mps 634 mmHg 75%
    08:00 -1°C° 0.1 mm 8 mps 634 mmHg 72%
    09:00 0°C° 0.1 mm 9 mps 635 mmHg 68%
    10:00 +1°C° 0.1 mm 11 mps 635 mmHg 65%
    11:00 +2°C° 0.2 mm 11 mps 635 mmHg 65%
    12:00 +2°C° 0.2 mm 12 mps 634 mmHg 64%
    13:00 +1°C° 0.2 mm 13 mps 634 mmHg 64%
    14:00 +1°C° 0.3 mm 13 mps 633 mmHg 65%
    15:00 +1°C° 0.3 mm 13 mps 633 mmHg 67%
    16:00 +2°C° 0.3 mm 12 mps 633 mmHg 68%
    17:00 +1°C° 0.3 mm 11 mps 633 mmHg 70%
    18:00 +1°C° 0.3 mm 11 mps 633 mmHg 72%
    19:00 +1°C° 0.3 mm 10 mps 632 mmHg 74%
    20:00 +1°C° 0.5 mm 9 mps 632 mmHg 75%
    21:00 +1°C° 0.5 mm 8 mps 632 mmHg 76%
    22:00 +1°C° 0.5 mm 8 mps 632 mmHg 77%
    23:00 +2°C° 0.5 mm 7 mps 632 mmHg 78%

    22 January, Monday

    Time Temperature Precipitation Wind Pressure Humidity
    00:00 +2°C° 0.5 mm 7 mps 632 mmHg 79%
    01:00 +2°C° 0.5 mm 6 mps 632 mmHg 80%
    02:00 +2°C° 0.5 mm 5 mps 632 mmHg 81%
    03:00 +2°C° 0.5 mm 5 mps 632 mmHg 82%
    04:00 +3°C° 0.5 mm 4 mps 632 mmHg 83%
    05:00 +3°C° 0.8 mm 4 mps 632 mmHg 84%
    06:00 +2°C° 0.8 mm 3 mps 632 mmHg 85%
    07:00 +2°C° 0.8 mm 3 mps 633 mmHg 86%
    08:00 +3°C° 0.1 mm 3 mps 633 mmHg 84%
    09:00 +4°C° 0.1 mm 3 mps 634 mmHg 81%
    10:00 +5°C° 0.1 mm 3 mps 634 mmHg 79%
    11:00 +4°C° 0.4 mm 3 mps 634 mmHg 80%
    12:00 +4°C° 0.4 mm 3 mps 634 mmHg 81%
    13:00 +4°C° 0.4 mm 3 mps 634 mmHg 81%
    14:00 +5°C° 0.6 mm 2 mps 634 mmHg 83%
    15:00 +5°C° 0.6 mm 2 mps 634 mmHg 84%
    16:00 +5°C° 0.6 mm 1 mps 634 mmHg 86%
    17:00 +5°C° 0.4 mm 1 mps 634 mmHg 87%
    18:00 +5°C° 0.4 mm 1 mps 634 mmHg 89%
    19:00 +4°C° 0.4 mm 1 mps 634 mmHg 90%
    20:00 +4°C° 0.7 mm 1 mps 634 mmHg 91%
    21:00 +4°C° 0.7 mm 1 mps 634 mmHg 92%
    22:00 +4°C° 0.7 mm 1 mps 634 mmHg 93%
    23:00 +4°C° 1 mm 1 mps 634 mmHg 93%
    Show more